This is the latest recevied weather packets stored in our database for station/object K0FJ-1. If no packets are shown the sender has not sent any weather packets the latest 10 day(s).
| Time | Temp. | Humidity | Pressure | Rain* | Wind** | Luminosity | Snow |
|---|---|---|---|---|---|---|---|
| 1787704803 | 30° C | 50% | 1021 hPa | 0 mm | - | - | - |
| 1787704503 | 30.56° C | 49% | 1021 hPa | 0 mm | - | - | - |
| 1787704203 | 30.56° C | 49% | 1021 hPa | 0 mm | - | - | - |
| 1787703903 | 30.56° C | 49% | 1021 hPa | 0 mm | - | - | - |
| 1787703603 | 30.56° C | 49% | 1021 hPa | 0 mm | - | - | - |
| 1787703303 | 31.11° C | 48% | 1021 hPa | 0 mm | - | - | - |
| 1787703003 | 31.11° C | 49% | 1020.8 hPa | 0 mm | - | - | - |
| 1787702703 | 31.11° C | 48% | 1020.7 hPa | 0 mm | - | - | - |
| 1787702403 | 31.11° C | 47% | 1020.7 hPa | 0 mm | - | - | - |
| 1787702103 | 31.11° C | 47% | 1020.8 hPa | 0 mm | - | - | - |
| 1787701803 | 31.11° C | 48% | 1020.6 hPa | 0 mm | - | - | - |
| 1787701503 | 31.11° C | 48% | 1020.6 hPa | 0 mm | - | - | - |
| 1787701203 | 30.56° C | 48% | 1020.5 hPa | 0 mm | - | - | - |
| 1787700903 | 30.56° C | 48% | 1020.5 hPa | 0 mm | - | - | - |
| 1787700603 | 30.56° C | 49% | 1020.6 hPa | 0 mm | - | - | - |
| 1787700303 | 30.56° C | 47% | 1020.6 hPa | 0 mm | - | - | - |
| 1787700003 | 31.11° C | 45% | 1020.5 hPa | 0 mm | - | - | - |
| 1787699703 | 31.11° C | 48% | 1020.6 hPa | 0 mm | - | - | - |
| 1787699403 | 31.11° C | 48% | 1020.6 hPa | 0 mm | - | - | - |
| 1787699103 | 31.11° C | 49% | 1020.6 hPa | 0 mm | - | - | - |
| 1787698803 | 31.11° C | 48% | 1020.6 hPa | 0 mm | - | - | - |
| 1787698503 | 31.11° C | 47% | 1020.6 hPa | 0 mm | - | - | - |
| 1787698203 | 31.11° C | 48% | 1020.7 hPa | 0 mm | - | - | - |
| 1787697903 | 31.67° C | 48% | 1020.6 hPa | 0 mm | - | - | - |
| 1787697603 | 31.11° C | 49% | 1020.7 hPa | 0 mm | - | - | - |
* Rain latest hour (hover to see other rain measurements)
** Current wind speed in m/s (hover to see current wind gust speed)